OneWeb SL0571

operational
NORAD ID: 55150 Int'l Des: 2023-004 Owner: ONEWEBN Country: UK Constellation: oneweb
LEOCIRCULARPOLARONEWEB_TYPE

Über OneWeb SL0571

Beschreibung wird geladen...

Live-Position

3D-Globus wird geladen...

Nächste Überflüge

Höhenverlauf

Altitude vs Time

uPlot chart will show altitude changes over time

Zweizeiliger Elementsatz

1 55150U 23004L 25354.43177581 -.00000050 00000-0 -15940-3 0 9999
2 55150 87.9163 10.9837 0000895 56.4447 303.6771 13.18684213146142
Epoch: 20. Dez. 2025 • Age: 11 hours

Aktueller Status

Höhe 1191.8 km
Geschwindigkeit 7.26 km/s
Subsatellitenpunkt 3.84°N, 38.3°W
Startdatum 10. Jan. 2023
Alter 2.9 years
Typ internet

Technische Details

Klassifizierung Payload
Masse 148.00 kg
Trockenmasse 140.00 kg
Gesamtmasse 148.00 kg
Länge 1.30 m
Durchmesser 1.00 m
Spannweite 5.00 m
Form Trapezoid+2 pan
Hersteller ONEWUS
Bus-Typ ARROW
Phasenstatus In Orbit
Besitzer/Staat ONEWEBN/UK

Große Konstellationen

Loading constellations...